Molokai, HI

12:28 PM HST on March 28, 2017 (GMT -1000)
Molokai

Weather History for PHMK - August, 2013

Change the Weather History Date:

Saturday, August 31, 2013

  Actual Average Record
Temperature  
Mean Temperature 78 °F -  
Max Temperature 84 °F 85 °F 89 °F (1978)
Min Temperature 73 °F 70 °F 64 °F (1985)
Cooling Degree Days 14    
Growing Degree Days 28 (Base 50)    
Moisture  
Dew Point 68 °F    
Average Humidity 74    
Maximum Humidity 91    
Minimum Humidity 56    
Precipitation  
Precipitation 0.00 in - - ()
Sea Level Pressure  
Sea Level Pressure 30.03 in    
Wind  
Wind Speed 10 mph (NE)    
Max Wind Speed 20 mph    
Max Gust Speed 32 mph    
Visibility 10 miles    
Events      
Averages and records for this station are not official NWS values.
T = Trace of Precipitation, MM = Missing Value Source: NWS Daily Summary

Daily Weather History Graph

Daily Weather History Graph

Search for Another Location

Airport or City:

Trip Planner

Search our weather history database for the weather conditions in past years. The results will help you decide how hot, cold, wet, or windy it might be!

Date:

Astronomy

Aug. 31, 2013 Rise Set
Actual Time 6:11 AM HST 6:44 PM HST
Civil Twilight 5:49 AM HST 7:07 PM HST
Nautical Twilight 5:22 AM HST 7:33 PM HST
Astronomical Twilight 4:56 AM HST 8:00 PM HST
Moon 2:10 AM HST (8/31) 3:32 PM HST (8/31)
Length of Visible Light 13h 18m
Length of Day
12h 33m
Waning Crescent, 19% of the Moon is Illuminated
Aug 31
Waning Crescent
Sep 5
New
Sep 12
First Quarter
Sep 19
Full
Sep 26
Last Quarter

Hourly Weather History & Observations

Time (HST) Temp. Heat Index Dew Point Humidity Pressure Visibility Wind Dir Wind Speed Gust Speed Precip Events Conditions
12:54 AM 73.9 °F - 69.1 °F 85% 30.05 in 10.0 mi NE 6.9 mph - N/A   Clear
1:54 AM 73.0 °F - 69.1 °F 87% 30.04 in 10.0 mi NE 6.9 mph - N/A   Clear
2:54 AM 73.9 °F - 69.1 °F 85% 30.03 in 10.0 mi NE 10.4 mph - N/A   Clear
3:54 AM 73.0 °F - 69.1 °F 87% 30.03 in 10.0 mi NNE 8.1 mph 16.1 mph N/A   Clear
4:54 AM 75.0 °F - 66.9 °F 76% 30.02 in 10.0 mi NNE 3.5 mph - N/A   Overcast
5:54 AM 73.9 °F - 68.0 °F 82% 30.04 in 10.0 mi NE 9.2 mph - N/A   Mostly Cloudy
6:54 AM 75.0 °F - 66.9 °F 76% 30.05 in 10.0 mi NNE 6.9 mph - N/A   Mostly Cloudy
7:54 AM 75.0 °F - 66.9 °F 76% 30.08 in 10.0 mi ENE 12.7 mph - N/A   Overcast
8:54 AM 75.9 °F - 66.9 °F 74% 30.09 in 10.0 mi ENE 6.9 mph - 0.00 in   Mostly Cloudy
9:54 AM 77.0 °F - 68.0 °F 74% 30.08 in 10.0 mi South 4.6 mph - N/A   Mostly Cloudy
10:19 AM 80.6 °F 82.7 °F 66.2 °F 61% 30.07 in 10.0 mi NE 11.5 mph 25.3 mph N/A   Mostly Cloudy
10:54 AM 82.9 °F 85.4 °F 66.9 °F 58% 30.07 in 10.0 mi NE 16.1 mph 24.2 mph N/A   Mostly Cloudy
11:54 AM 84.0 °F 86.5 °F 66.9 °F 56% 30.05 in 10.0 mi ENE 19.6 mph 25.3 mph N/A   Partly Cloudy
12:54 PM 82.0 °F 84.5 °F 66.9 °F 60% 30.04 in 10.0 mi NNE 15.0 mph 27.6 mph N/A   Scattered Clouds
1:54 PM 82.9 °F 85.0 °F 66.0 °F 56% 30.01 in 10.0 mi NNE 18.4 mph 32.2 mph N/A   Scattered Clouds
2:54 PM 82.0 °F 83.8 °F 64.9 °F 56% 29.99 in 10.0 mi NE 18.4 mph 29.9 mph N/A   Scattered Clouds
3:54 PM 82.0 °F 84.9 °F 68.0 °F 62% 29.99 in 10.0 mi NE 16.1 mph 27.6 mph N/A   Clear
4:54 PM 79.0 °F - 66.9 °F 66% 29.98 in 10.0 mi NE 12.7 mph 26.5 mph N/A   Partly Cloudy
5:54 PM 78.1 °F - 66.9 °F 68% 29.99 in 10.0 mi NE 11.5 mph 18.4 mph N/A   Clear
6:54 PM 75.0 °F - 69.1 °F 82% 30.00 in 10.0 mi NE 10.4 mph 25.3 mph N/A   Clear
7:54 PM 75.0 °F - 70.0 °F 84% 30.01 in 10.0 mi NE 13.8 mph 20.7 mph N/A   Clear
8:54 PM 73.9 °F - 71.1 °F 91% 30.02 in 10.0 mi NE 12.7 mph 19.6 mph N/A   Partly Cloudy
9:54 PM 73.9 °F - 68.0 °F 82% 30.03 in 10.0 mi NNE 13.8 mph 23.0 mph N/A   Clear
10:54 PM 73.0 °F - 69.1 °F 87% 30.03 in 10.0 mi NNE 9.2 mph - N/A   Mostly Cloudy
11:54 PM 73.9 °F - 66.9 °F 79% 30.02 in 10.0 mi NNE 9.2 mph - N/A   Scattered Clouds